Вернуться в каталог

STARLINK-37120

АктивенСвязьSSO
NORAD 68211·PAYLOAD·🇺🇸 United States

Запущен Mar 17, 2026 с Vandenberg Space Force Base

Loading…

Ближайшие Пролёты (ближайшие 24 часа)

TLE

СвежийSource: CelesTrak SupGP

Эпоха: Sep 15, 2026, 03:23 UTC

1 68211C 26053E   26258.14145833  .00031169  00000+0  96674-3 0  2588
2 68211  97.2846 131.9405 0001563  90.4691  90.6502 15.33449783    13

Отслеживайте STARLINK-37120 в реальном времени с AllMySat

Download on the App Store